Weather History for KRPH - April, 2013

Change the Weather History Date:

Tuesday, April 23, 2013

  Actual Average (KMWL) Record (KMWL)
Temperature  
Mean Temperature 56 °F -  
Max Temperature 71 °F 76 °F 93 °F (2011)
Min Temperature 39 °F 53 °F 39 °F (2013)
Degree Days  
Heating Degree Days 10    
Growing Degree Days 6 (Base 50)    
Moisture  
Dew Point 40 °F    
Average Humidity 72    
Maximum Humidity 91    
Minimum Humidity 57    
Precipitation  
Precipitation 0.00 in - - ()
Sea Level Pressure  
Sea Level Pressure 30.02 in    
Wind  
Wind Speed 15 mph (NW)    
Max Wind Speed 21 mph    
Max Gust Speed 30 mph    
Visibility 10 miles    
Events      
Averages and records for this station are not official NWS values.
T = Trace of Precipitation, MM = Missing Value Source: NWS Daily Summary

Daily Weather History Graph

Daily Weather History Graph

Search for Another Location

Airport or City:

Trip Planner

Search our weather history database for the weather conditions in past years. The results will help you decide how hot, cold, wet, or windy it might be!

Date:

Astronomy

Apr. 23, 2013 Rise Set
Actual Time 6:54 AM CDT 8:10 PM CDT
Civil Twilight 6:28 AM CDT 8:36 PM CDT
Nautical Twilight 5:57 AM CDT 9:07 PM CDT
Astronomical Twilight 5:25 AM CDT 9:39 PM CDT
Moon 6:12 PM CDT (4/23) 5:16 AM CDT (4/23)
Length of Visible Light 14h 07m
Length of Day
13h 16m
Waxing Gibbous, 94% of the Moon is Illuminated
Apr 23
Waxing Gibbous
Apr 25
Full
May 2
Last Quarter
May 9
New
May 17
First Quarter

Hourly Weather History & Observations

Time (CDT) Temp. Windchill Dew Point Humidity Pressure Visibility Wind Dir Wind Speed Gust Speed Precip Events Conditions
12:15 AM 72.1 °F - 55.9 °F 57% 29.76 in 10.0 mi SSE 16.1 mph 25.3 mph N/A   Clear
12:35 AM 72.1 °F - 55.9 °F 57% 29.77 in 10.0 mi SSE 13.8 mph 26.5 mph N/A   Clear
12:55 AM 71.8 °F - 56.3 °F 58% 29.76 in 10.0 mi SSE 16.1 mph 25.3 mph N/A   Clear
1:15 AM 71.1 °F - 56.3 °F 60% 29.76 in 10.0 mi SSE 13.8 mph 19.6 mph N/A   Clear
1:35 AM 70.7 °F - 56.3 °F 60% 29.76 in 10.0 mi SSE 10.4 mph 20.7 mph N/A   Clear
1:55 AM 69.8 °F - 56.5 °F 63% 29.76 in 10.0 mi SSE 12.7 mph 19.6 mph N/A   Clear
2:15 AM 69.8 °F - 56.5 °F 63% 29.74 in 10.0 mi SSE 11.5 mph 18.4 mph N/A   Clear
2:35 AM 69.1 °F - 56.5 °F 64% 29.74 in 10.0 mi SSE 11.5 mph 17.3 mph N/A   Clear
2:55 AM 68.2 °F - 56.7 °F 67% 29.73 in 10.0 mi SE 11.5 mph 16.1 mph N/A   Clear
3:15 AM 67.6 °F - 56.7 °F 68% 29.80 in 10.0 mi WNW 13.8 mph - N/A   Clear
3:35 AM 67.1 °F - 56.5 °F 69% 29.78 in 10.0 mi South 6.9 mph - N/A   Clear
3:55 AM 66.0 °F - 56.5 °F 71% 29.81 in 10.0 mi WSW 5.8 mph - N/A   Clear
4:15 AM 65.5 °F - 56.5 °F 73% 29.80 in 10.0 mi South 3.5 mph - N/A   Clear
4:35 AM 58.8 °F - 48.0 °F 67% 29.83 in 10.0 mi WNW 18.4 mph 24.2 mph N/A   Clear
4:55 AM 53.8 °F - 46.4 °F 76% 29.85 in 10.0 mi WNW 20.7 mph 28.8 mph N/A   Clear
5:15 AM 51.3 °F - 44.6 °F 78% 29.87 in 10.0 mi WNW 13.8 mph 23.0 mph N/A   Clear
5:55 AM 49.1 °F - 43.0 °F 79% 29.89 in 10.0 mi NW 17.3 mph 25.3 mph N/A   Overcast
6:15 AM 47.5 °F - 41.5 °F 80% 29.91 in 10.0 mi NW 17.3 mph 29.9 mph N/A   Overcast
6:35 AM 46.4 °F 39.5 °F 41.0 °F 81% 29.92 in 10.0 mi NW 17.3 mph 28.8 mph N/A   Overcast
6:55 AM 45.5 °F 37.8 °F 39.9 °F 81% 29.94 in 10.0 mi WNW 19.6 mph 26.5 mph N/A   Overcast
7:15 AM 44.1 °F 36.5 °F 38.7 °F 81% 29.97 in 10.0 mi NW 17.3 mph 25.3 mph N/A   Overcast
7:35 AM 43.7 °F 35.7 °F 38.3 °F 81% 29.98 in 10.0 mi NW 18.4 mph 23.0 mph N/A   Overcast
7:55 AM 42.8 °F 34.5 °F 38.3 °F 84% 30.00 in 10.0 mi NW 18.4 mph 25.3 mph N/A   Overcast
8:15 AM 41.9 °F 34.3 °F 38.7 °F 88% 30.01 in 3.0 mi NW 15.0 mph 25.3 mph N/A   Overcast
8:35 AM 41.0 °F 33.9 °F 38.7 °F 91% 30.02 in 3.0 mi NW 12.7 mph 23.0 mph N/A   Overcast
8:55 AM 41.0 °F 33.1 °F 38.1 °F 89% 30.03 in 4.0 mi NW 15.0 mph 26.5 mph N/A   Overcast
9:15 AM 41.4 °F 33.0 °F 38.1 °F 88% 30.05 in 7.0 mi NW 17.3 mph 23.0 mph N/A   Overcast
9:35 AM 41.7 °F 33.4 °F 37.8 °F 86% 30.06 in 10.0 mi NNW 17.3 mph 24.2 mph N/A   Overcast
9:55 AM 41.4 °F 33.6 °F 37.4 °F 86% 30.07 in 7.0 mi NW 15.0 mph 25.3 mph N/A   Overcast
10:15 AM 42.1 °F 33.6 °F 37.8 °F 85% 30.08 in 10.0 mi WNW 18.4 mph 21.9 mph N/A   Overcast
10:35 AM 42.3 °F 33.8 °F 37.2 °F 82% 30.08 in 10.0 mi NW 18.4 mph 24.2 mph N/A   Overcast
10:55 AM 42.4 °F 34.1 °F 36.9 °F 81% 30.09 in 10.0 mi NNW 18.4 mph 26.5 mph N/A   Overcast
11:15 AM 42.3 °F 34.1 °F 37.0 °F 82% 30.10 in 10.0 mi NNW 17.3 mph 23.0 mph N/A   Overcast
11:35 AM 43.2 °F 35.6 °F 36.9 °F 78% 30.10 in 10.0 mi NNW 16.1 mph 24.2 mph N/A   Overcast
11:55 AM 43.3 °F 35.8 °F 36.5 °F 77% 30.10 in 10.0 mi NNW 16.1 mph 25.3 mph N/A   Overcast
12:15 PM 43.9 °F 36.2 °F 35.6 °F 73% 30.10 in 10.0 mi NW 17.3 mph 23.0 mph N/A   Overcast
12:35 PM 43.9 °F 36.2 °F 35.6 °F 73% 30.10 in 10.0 mi NNW 17.3 mph 24.2 mph N/A   Overcast
12:55 PM 43.7 °F 36.3 °F 35.6 °F 73% 30.09 in 10.0 mi NNW 16.1 mph 21.9 mph N/A   Overcast
1:15 PM 43.9 °F 36.5 °F 35.6 °F 73% 30.09 in 10.0 mi NW 16.1 mph 21.9 mph N/A   Overcast
1:35 PM 44.2 °F 37.0 °F 35.4 °F 71% 30.08 in 10.0 mi NNW 16.1 mph 23.0 mph N/A   Overcast
1:55 PM 44.8 °F 39.4 °F 35.4 °F 70% 30.08 in 10.0 mi NW 10.4 mph 16.1 mph N/A   Overcast
2:15 PM 45.5 °F 39.2 °F 35.2 °F 67% 30.08 in 10.0 mi NNW 13.8 mph - N/A   Overcast
2:35 PM 45.9 °F 40.0 °F 35.1 °F 66% 30.07 in 10.0 mi NNW 12.7 mph 19.6 mph N/A   Overcast
2:55 PM 46.4 °F 40.1 °F 34.9 °F 64% 30.07 in 10.0 mi NNW 15.0 mph 21.9 mph N/A   Overcast
3:15 PM 46.9 °F - 35.1 °F 63% 30.07 in 10.0 mi NNW 15.0 mph - N/A   Overcast
3:35 PM 46.8 °F - 34.9 °F 63% 30.08 in 10.0 mi NW 15.0 mph - N/A   Overcast
3:55 PM 46.8 °F - 34.9 °F 63% 30.07 in 10.0 mi North 16.1 mph 19.6 mph N/A   Overcast
4:15 PM 46.2 °F 40.1 °F 34.7 °F 64% 30.07 in 10.0 mi NNW 13.8 mph - N/A   Overcast
4:35 PM 46.4 °F 40.4 °F 34.7 °F 64% 30.07 in 10.0 mi NNW 13.8 mph 19.6 mph N/A   Overcast
4:55 PM 45.9 °F 39.1 °F 34.7 °F 65% 30.07 in 10.0 mi NNW 16.1 mph 23.0 mph N/A   Overcast
5:15 PM 46.0 °F 39.6 °F 34.5 °F 64% 30.08 in 10.0 mi NNW 15.0 mph 21.9 mph N/A   Overcast
5:35 PM 45.7 °F 39.8 °F 34.5 °F 65% 30.08 in 10.0 mi NNW 12.7 mph - N/A   Overcast
5:55 PM 45.5 °F 38.9 °F 34.5 °F 65% 30.08 in 10.0 mi North 15.0 mph - N/A   Overcast
6:15 PM 44.8 °F 38.0 °F 34.7 °F 68% 30.08 in 10.0 mi NNW 15.0 mph 21.9 mph N/A   Overcast
6:35 PM 44.8 °F 37.4 °F 34.2 °F 66% 30.08 in 10.0 mi North 17.3 mph 20.7 mph N/A   Overcast
6:55 PM 44.1 °F 37.1 °F 33.8 °F 67% 30.09 in 10.0 mi North 15.0 mph 23.0 mph N/A   Overcast
7:15 PM 43.7 °F 36.0 °F 33.8 °F 68% 30.09 in 10.0 mi North 17.3 mph - N/A   Overcast
7:35 PM 43.0 °F 35.1 °F 33.8 °F 70% 30.10 in 10.0 mi North 17.3 mph 23.0 mph N/A   Overcast
7:55 PM 42.8 °F 35.1 °F 33.3 °F 69% 30.11 in 10.0 mi North 16.1 mph 23.0 mph N/A   Overcast
8:15 PM 42.3 °F 34.8 °F 32.7 °F 69% 30.12 in 10.0 mi NNW 15.0 mph 23.0 mph N/A   Overcast
8:35 PM 42.1 °F 33.9 °F 32.5 °F 69% 30.14 in 10.0 mi NNW 17.3 mph 23.0 mph N/A   Overcast
8:55 PM 41.7 °F 34.4 °F 32.9 °F 71% 30.15 in 10.0 mi NNW 13.8 mph - N/A   Overcast
9:15 PM 41.4 °F 33.6 °F 32.7 °F 71% 30.17 in 10.0 mi North 15.0 mph - N/A   Overcast
9:35 PM 41.2 °F 32.7 °F 32.7 °F 72% 30.19 in 10.0 mi NNW 17.3 mph 24.2 mph N/A   Overcast
9:55 PM 41.0 °F 31.6 °F 32.9 °F 73% 30.20 in 10.0 mi NNW 20.7 mph 26.5 mph N/A   Overcast
10:15 PM 40.5 °F 31.2 °F 32.2 °F 72% 30.22 in 10.0 mi NNW 19.6 mph 27.6 mph N/A   Overcast
10:35 PM 40.1 °F 30.7 °F 32.0 °F 73% 30.23 in 10.0 mi NNW 19.6 mph 25.3 mph N/A   Overcast
10:55 PM 39.6 °F 31.3 °F 32.0 °F 74% 30.23 in 10.0 mi NNW 15.0 mph 26.5 mph N/A   Overcast
11:15 PM 39.6 °F 30.6 °F 32.0 °F 74% 30.23 in 10.0 mi NNW 17.3 mph 23.0 mph N/A   Overcast
11:35 PM 39.2 °F 31.2 °F 32.0 °F 75% 30.24 in 10.0 mi NNW 13.8 mph 24.2 mph N/A   Overcast
11:55 PM 39.2 °F 30.8 °F 31.6 °F 74% 30.24 in 10.0 mi NNW 15.0 mph - N/A   Overcast